Columbia, MO

8:43 AM CST on January 22, 2018 (GMT -0600)
Columbia Regional

Weather History for KCOU - March, 2014

Change the Weather History Date:

Wednesday, March 19, 2014

  Actual Average Record
Temperature  
Mean Temperature 42 °F 46 °F  
Max Temperature 50 °F 57 °F 81 °F (2012)
Min Temperature 34 °F 35 °F 2 °F (1923)
Degree Days  
Heating Degree Days 23 19  
Month to date heating degree days 489 429  
Since 1 July heating degree days 4918 4375  
Cooling Degree Days 0 0  
Month to date cooling degree days 0 0  
Year to date cooling degree days 0 0  
Moisture  
Dew Point 33 °F    
Average Humidity 64    
Maximum Humidity 86    
Minimum Humidity 42    
Precipitation  
Precipitation T in 0.10 in 2.08 in (1927)
Month to date precipitation 0.57 1.67  
Year to date precipitation 2.83 5.84  
Snow  
Snow 0.00 in 0.10 in 6.20 in (1906)
Month to date snowfall 0.5 1.4  
Since 1 July snowfall 17.8 17.5  
Snow Depth 0.00 in    
Sea Level Pressure  
Sea Level Pressure 29.93 in    
Wind  
Wind Speed 13 mph (West)    
Max Wind Speed 26 mph    
Max Gust Speed 33 mph    
Visibility 9 miles    
Events      
T = Trace of Precipitation, MM = Missing Value Source: NWS Daily Summary

Daily Weather History Graph

Daily Weather History Graph

Search for Another Location

Airport or City:

Trip Planner

Search our weather history database for the weather conditions in past years. The results will help you decide how hot, cold, wet, or windy it might be!

Date:

Astronomy

Mar. 19, 2014 Rise Set
Actual Time 7:13 AM CDT 7:19 PM CDT
Civil Twilight 6:47 AM CDT 7:46 PM CDT
Nautical Twilight 6:16 AM CDT 8:17 PM CDT
Astronomical Twilight 5:44 AM CDT 8:49 PM CDT
Moon 10:36 PM CDT (3/19) 8:41 AM CDT (3/19)
Length of Visible Light 12h 59m
Length of Day
12h 06m
Waning Gibbous, 91% of the Moon is Illuminated
Mar 19
Waning Gibbous
Mar 23
Last Quarter
Mar 30
New
Apr 7
First Quarter
Apr 15
Full

Hourly Weather History & Observations

Time (CDT) Temp. Windchill Dew Point Humidity Pressure Visibility Wind Dir Wind Speed Gust Speed Precip Events Conditions
12:54 AM 48.0 °F - 43.0 °F 83% 29.58 in 10.0 mi South 6.9 mph - 0.00 in   Scattered Clouds
1:54 AM 46.9 °F - 42.1 °F 83% 29.60 in 10.0 mi SW 12.7 mph - N/A   Clear
2:54 AM 48.0 °F - 39.0 °F 71% 29.62 in 10.0 mi WSW 12.7 mph - N/A   Mostly Cloudy
3:54 AM 48.0 °F - 37.0 °F 66% 29.66 in 10.0 mi WSW 19.6 mph 25.3 mph N/A   Overcast
4:54 AM 46.0 °F 40.2 °F 37.0 °F 71% 29.70 in 10.0 mi West 12.7 mph 26.5 mph N/A   Mostly Cloudy
5:26 AM 45.0 °F 37.1 °F 37.0 °F 74% 29.74 in 10.0 mi West 19.6 mph 25.3 mph N/A   Mostly Cloudy
5:54 AM 44.1 °F 37.7 °F 37.9 °F 79% 29.77 in 10.0 mi WNW 12.7 mph - N/A   Overcast
6:15 AM 42.1 °F 32.3 °F 37.0 °F 82% 29.79 in 10.0 mi WNW 24.2 mph 33.4 mph N/A   Overcast
6:54 AM 39.0 °F 30.3 °F 36.0 °F 89% 29.82 in 8.0 mi WNW 16.1 mph 27.6 mph 0.00 in   Overcast
7:17 AM 37.9 °F 27.9 °F 35.1 °F 89% 29.84 in 8.0 mi WNW 19.6 mph - N/A   Overcast
7:54 AM 37.9 °F 28.2 °F 34.0 °F 86% 29.88 in 7.0 mi WNW 18.4 mph 25.3 mph N/A   Overcast
8:50 AM 37.4 °F 28.9 °F 32.0 °F 81% 29.92 in 7.0 mi WNW 13.8 mph 24.2 mph N/A   Overcast
8:54 AM 37.9 °F 28.9 °F 32.0 °F 79% 29.93 in 7.0 mi WNW 16.1 mph 26.5 mph N/A   Overcast
9:54 AM 37.9 °F 29.2 °F 30.9 °F 76% 29.97 in 8.0 mi WNW 15.0 mph - N/A   Overcast
10:54 AM 37.9 °F 29.6 °F 30.9 °F 76% 30.02 in 7.0 mi WNW 13.8 mph 24.2 mph N/A   Overcast
11:54 AM 39.9 °F 30.8 °F 30.9 °F 70% 30.05 in 10.0 mi WNW 18.4 mph - N/A   Overcast
12:54 PM 43.0 °F 34.8 °F 30.0 °F 60% 30.06 in 10.0 mi West 18.4 mph 26.5 mph N/A   Overcast
1:54 PM 44.1 °F 35.7 °F 30.0 °F 58% 30.08 in 10.0 mi West 20.7 mph 26.5 mph N/A   Overcast
2:38 PM 46.9 °F - 30.0 °F 52% 30.06 in 10.0 mi West 16.1 mph 25.3 mph N/A   Mostly Cloudy
2:54 PM 46.9 °F - 28.9 °F 50% 30.07 in 10.0 mi West 18.4 mph 25.3 mph N/A   Scattered Clouds
3:54 PM 48.9 °F - 30.0 °F 48% 30.07 in 10.0 mi WNW 17.3 mph 28.8 mph N/A   Partly Cloudy
4:54 PM 50.0 °F - 30.0 °F 46% 30.07 in 10.0 mi NW 18.4 mph - N/A   Clear
5:54 PM 50.0 °F - 28.9 °F 44% 30.08 in 10.0 mi West 12.7 mph - N/A   Clear
6:54 PM 48.0 °F - 28.0 °F 46% 30.09 in 10.0 mi WNW 10.4 mph - N/A   Clear
7:54 PM 44.1 °F 40.8 °F 27.0 °F 51% 30.11 in 10.0 mi WNW 5.8 mph - N/A   Clear
8:54 PM 43.0 °F 39.5 °F 27.0 °F 53% 30.13 in 10.0 mi West 5.8 mph - N/A   Clear
9:54 PM 42.1 °F 38.4 °F 27.0 °F 55% 30.14 in 10.0 mi West 5.8 mph - N/A   Clear
10:54 PM 39.0 °F 36.8 °F 26.1 °F 60% 30.15 in 10.0 mi West 3.5 mph - N/A   Clear
11:54 PM 36.0 °F 31.1 °F 26.1 °F 67% 30.14 in 10.0 mi SSW 5.8 mph - N/A   Clear